| time (UTC) | temp C | wind direction | speed KPH | gust KPH | rain 1hr cm | rain 24hr cm | rain mn cm | humidity % | barometer mb |
| 20260906194510 | 12 | 328 | 0.0 | 0.0 | 0.00 | 0.00 | 1.27 | 88 | 1008.1 |
| 20260906193010 | 12 | 328 | 0.0 | 0.0 | 0.00 | 0.00 | 1.19 | 88 | 1008.6 |
| 20260906191509 | 12 | 328 | 0.0 | 0.0 | 0.00 | 0.00 | 1.09 | 88 | 1008.4 |
| 20260906190006 | 12 | 28 | 0.0 | 0.0 | 0.00 | 0.00 | 0.86 | 88 | 1008.3 |
| 20260906184505 | 13 | 116 | 0.0 | 0.0 | 0.00 | 0.00 | 0.71 | 88 | 1008.2 |
| 20260906183006 | 13 | 116 | 0.0 | 0.0 | 0.00 | 0.00 | 0.58 | 88 | 1008.1 |
| 20260906181604 | 13 | 116 | 0.0 | 0.0 | 0.00 | 0.00 | 0.38 | 87 | 1007.5 |
| 20260906180121 | 13 | 116 | 0.0 | 0.0 | 0.00 | 0.00 | 0.25 | 87 | 1007.6 |
| 20260906174620 | 13 | 116 | 0.0 | 0.0 | 0.00 | 0.00 | 0.13 | 88 | 1007.5 |
| 20260906173057 | 13 | 116 | 0.0 | 0.0 | 0.00 | 0.00 | 0.03 | 87 | 1007.1 |
| 20260906171610 | 13 | 116 | 0.0 | 0.0 | 0.00 | 0.00 | 0.00 | 87 | 1007.1 |
| 20260906170059 | 13 | 116 | 0.0 | 0.0 | 0.00 | 0.00 | 0.00 | 87 | 1006.9 |
| 20260906164545 | 14 | 116 | 0.0 | 0.0 | 0.00 | 0.00 | 0.00 | 88 | 1006.7 |
| 20260906161549 | 13 | 116 | 0.0 | 0.0 | 0.00 | 0.00 | 0.00 | 88 | 1006.6 |
| 20260906160038 | 13 | 116 | 0.0 | 0.0 | 0.00 | 0.00 | 0.00 | 87 | 1006.7 |
| 20260906154544 | 13 | 116 | 0.0 | 0.0 | 0.00 | 0.00 | 0.00 | 87 | 1006.6 |
| 20260906153044 | 13 | 116 | 0.0 | 0.0 | 0.00 | 0.00 | 0.00 | 87 | 1006.8 |
| 20260906151535 | 13 | 116 | 0.0 | 0.0 | 0.00 | 0.00 | 0.00 | 86 | 1006.8 |
| 20260906150038 | 13 | 116 | 0.0 | 0.0 | 0.00 | 0.00 | 0.00 | 85 | 1006.7 |
| 20260906144535 | 13 | 116 | 0.0 | 0.0 | 0.00 | 0.00 | 0.00 | 85 | 1006.6 |
| 20260906143033 | 13 | 116 | 0.0 | 0.0 | 0.00 | 0.00 | 0.00 | 84 | 1006.6 |
| 20260906141531 | 13 | 116 | 0.0 | 0.0 | 0.00 | 0.00 | 0.00 | 82 | 1006.2 |
| 20260906140029 | 13 | 116 | 0.0 | 0.0 | 0.00 | 0.00 | 0.00 | 80 | 1005.4 |
| 20260906134523 | 14 | 116 | 0.0 | 0.0 | 0.00 | 0.00 | 0.00 | 79 | 1005.1 |
| 20260906133025 | 14 | 116 | 0.0 | 0.0 | 0.00 | 0.00 | 0.00 | 76 | 1005.0 |
| 20260906131514 | 14 | 116 | 0.0 | 0.0 | 0.00 | 0.00 | 0.00 | 76 | 1004.9 |
| 20260906130013 | 14 | 116 | 0.0 | 0.0 | 0.00 | 0.00 | 0.00 | 75 | 1004.3 |
| 20260906124505 | 14 | 116 | 0.0 | 0.0 | 0.00 | 0.00 | 0.00 | 77 | 1004.3 |
| 20260906123109 | 14 | 143 | 0.0 | 0.0 | 0.00 | 0.00 | 0.00 | 79 | 1003.8 |
| 20260906121557 | 14 | 143 | 0.0 | 0.0 | 0.00 | 0.00 | 0.00 | 78 | 1004.5 |
| 20260906120053 | 14 | 143 | 0.0 | 0.0 | 0.00 | 0.00 | 0.00 | 77 | 1004.0 |
| 20260906114552 | 14 | 143 | 0.0 | 0.0 | 0.00 | 0.00 | 0.00 | 78 | 1003.8 |
| 20260906113044 | 14 | 143 | 0.0 | 0.0 | 0.00 | 0.00 | 0.00 | 77 | 1004.1 |
| 20260906111545 | 14 | 143 | 0.0 | 0.0 | 0.00 | 0.00 | 0.00 | 76 | 1004.2 |
| 20260906110034 | 14 | 143 | 0.0 | 0.0 | 0.00 | 0.00 | 0.00 | 75 | 1002.8 |
| 20260906104533 | 14 | 143 | 0.0 | 0.0 | 0.00 | 0.00 | 0.00 | 75 | 1002.7 |
| 20260906103026 | 14 | 143 | 0.0 | 0.0 | 0.00 | 0.00 | 0.00 | 76 | 1003.2 |
| 20260906101529 | 14 | 143 | 0.0 | 0.0 | 0.00 | 0.00 | 0.00 | 76 | 1003.2 |
| 20260906100028 | 14 | 143 | 0.0 | 0.0 | 0.00 | 0.00 | 0.00 | 76 | 1003.2 |
| 20260906094514 | 14 | 141 | 0.0 | 0.0 | 0.00 | 0.00 | 0.00 | 76 | 1003.3 |
| 20260906093013 | 14 | 145 | 0.0 | 0.0 | 0.00 | 0.00 | 0.00 | 76 | 1003.4 |
| 20260906091505 | 14 | 150 | 0.0 | 0.0 | 0.00 | 0.00 | 0.00 | 75 | 1003.3 |
| 20260906084558 | 14 | 157 | 0.0 | 0.0 | 0.00 | 0.00 | 0.00 | 75 | 1003.7 |
| 20260906083052 | 14 | 138 | 0.0 | 0.0 | 0.00 | 0.00 | 0.00 | 75 | 1003.8 |
| 20260906081548 | 14 | 138 | 0.0 | 0.0 | 0.00 | 0.00 | 0.00 | 75 | 1004.1 |
| 20260906080047 | 14 | 137 | 0.0 | 0.0 | 0.00 | 0.00 | 0.00 | 75 | 1004.0 |
| 20260906074542 | 14 | 136 | 0.0 | 0.0 | 0.00 | 0.00 | 0.00 | 73 | 1004.1 |
| 20260906073042 | 14 | 143 | 0.0 | 0.0 | 0.00 | 0.00 | 0.00 | 73 | 1004.1 |
| 20260906071540 | 14 | 143 | 0.0 | 0.0 | 0.00 | 0.00 | 0.00 | 73 | 1003.9 |
| 20260906070040 | 14 | 140 | 0.0 | 0.0 | 0.00 | 0.00 | 0.00 | 73 | 1004.0 |
| 20260906064540 | 14 | 140 | 0.0 | 0.0 | 0.00 | 0.00 | 0.00 | 72 | 1004.1 |
| 20260906063040 | 15 | 140 | 0.0 | 0.0 | 0.00 | 0.00 | 0.00 | 71 | 1004.2 |
| 20260906061545 | 15 | 138 | 0.0 | 0.0 | 0.00 | 0.00 | 0.00 | 71 | 1004.2 |
| 20260906060042 | 15 | 138 | 0.0 | 0.0 | 0.00 | 0.00 | 0.00 | 71 | 1005.2 |
| 20260906054542 | 15 | 138 | 0.0 | 0.0 | 0.00 | 0.00 | 0.00 | 69 | 1004.7 |
| 20260906053036 | 15 | 131 | 0.0 | 0.0 | 0.00 | 0.00 | 0.00 | 69 | 1005.2 |
| 20260906051537 | 15 | 131 | 0.0 | 0.0 | 0.00 | 0.00 | 0.00 | 65 | 1005.8 |
| 20260906050034 | 15 | 131 | 0.0 | 0.0 | 0.00 | 0.00 | 0.00 | 61 | 1006.4 |
| 20260906044532 | 14 | 131 | 0.0 | 0.0 | 0.00 | 0.00 | 0.00 | 51 | 1006.6 |
| 20260906043034 | 15 | 152 | 0.0 | 0.0 | 0.00 | 0.00 | 0.00 | 48 | 1006.8 |
| 20260906041531 | 15 | 172 | 0.0 | 0.0 | 0.00 | 0.00 | 0.00 | 48 | 1006.1 |
| 20260906040029 | 15 | 150 | 0.0 | 0.0 | 0.00 | 0.00 | 0.00 | 47 | 1006.5 |
| 20260906034549 | 15 | 150 | 0.0 | 0.0 | 0.00 | 0.00 | 0.00 | 43 | 1006.3 |
| 20260906033032 | 15 | 145 | 0.0 | 0.0 | 0.00 | 0.00 | 0.00 | 42 | 1006.2 |
| 20260906031530 | 15 | 136 | 0.0 | 0.0 | 0.00 | 0.00 | 0.00 | 41 | 1006.3 |
| 20260906030026 | 15 | 147 | 0.0 | 0.0 | 0.00 | 0.00 | 0.00 | 42 | 1006.6 |
| 20260906024526 | 15 | 133 | 1.6 | 0.0 | 0.00 | 0.00 | 0.00 | 42 | 1006.6 |
| 20260906023029 | 15 | 185 | 0.0 | 0.0 | 0.00 | 0.00 | 0.00 | 39 | 1006.2 |
| 20260906021528 | 16 | 193 | 0.0 | 0.0 | 0.00 | 0.00 | 0.00 | 38 | 1006.3 |
| 20260906020023 | 16 | 193 | 0.0 | 0.0 | 0.00 | 0.00 | 0.00 | 38 | 1006.6 |
| 20260906014522 | 16 | 195 | 0.0 | 0.0 | 0.00 | 0.00 | 0.00 | 37 | 1006.0 |
| 20260906013022 | 16 | 193 | 0.0 | 0.0 | 0.00 | 0.00 | 0.00 | 36 | 1006.1 |
| 20260906011521 | 16 | 138 | 0.0 | 0.0 | 0.00 | 0.00 | 0.00 | 34 | 1006.2 |
| 20260906010020 | 17 | 161 | 0.0 | 0.0 | 0.00 | 0.00 | 0.00 | 33 | 1006.1 |
| 20260906004520 | 17 | 175 | 0.0 | 0.0 | 0.00 | 0.00 | 0.00 | 33 | 1006.2 |
| 20260906003020 | 17 | 202 | 1.6 | 0.0 | 0.00 | 0.00 | 0.00 | 32 | 1006.0 |
| 20260906001538 | 17 | 209 | 0.0 | 0.0 | 0.00 | 0.00 | 0.00 | 31 | 1005.9 |
| 20260906000019 | 18 | 137 | 1.6 | 0.0 | 0.00 | 0.00 | 0.00 | 30 | 1005.6 |
| 20260905234517 | 18 | 128 | 4.8 | 0.0 | 0.00 | 0.00 | 0.00 | 28 | 1004.9 |
| 20260905233020 | 18 | 195 | 4.8 | 0.0 | 0.00 | 0.00 | 0.00 | 28 | 1004.8 |
| 20260905231522 | 19 | 144 | 4.8 | 0.0 | 0.00 | 0.00 | 0.00 | 27 | 1004.9 |
| 20260905230017 | 20 | 282 | 1.6 | 0.0 | 0.00 | 0.00 | 0.00 | 26 | 1004.8 |
| 20260905224514 | 19 | 168 | 4.8 | 0.0 | 0.00 | 0.00 | 0.00 | 27 | 1005.1 |
| 20260905223025 | 19 | 145 | 4.8 | 0.0 | 0.00 | 0.00 | 0.00 | 27 | 1005.1 |
| 20260905221511 | 20 | 206 | 3.2 | 0.0 | 0.00 | 0.00 | 0.00 | 28 | 1005.2 |
| 20260905220011 | 19 | 167 | 3.2 | 0.0 | 0.00 | 0.00 | 0.00 | 28 | 1005.4 |
| 20260905214513 | 19 | 202 | 4.8 | 0.0 | 0.00 | 0.00 | 0.00 | 30 | 1005.4 |
| 20260905213010 | 20 | 216 | 3.2 | 0.0 | 0.00 | 0.00 | 0.00 | 28 | 1005.5 |
| 20260905211506 | 19 | 144 | 4.8 | 0.0 | 0.00 | 0.00 | 0.00 | 28 | 1005.9 |
| 20260905210003 | 18 | 144 | 4.8 | 0.0 | 0.00 | 0.00 | 0.00 | 31 | 1005.9 |
| 20260905204501 | 18 | 140 | 6.4 | 0.0 | 0.00 | 0.00 | 0.00 | 34 | 1005.8 |
| 20260905203001 | 18 | 224 | 6.4 | 0.0 | 0.00 | 0.00 | 0.00 | 31 | 1006.1 |
| 20260905201556 | 18 | 222 | 6.4 | 0.0 | 0.00 | 0.00 | 0.00 | 34 | 1006.0 |
| 20260905200115 | 18 | 203 | 6.4 | 0.0 | 0.00 | 0.00 | 0.00 | 33 | 1005.8 |